N77T SADF-SAZM

Flight info

Callsign N77T
Flight time 0h 46m
Altitude 36000
Route PTA DCT GBE/N0484F230 W29 VOTRA VOTRA2U
Aircraft C750/M-SBDE3FGHRWXY/S

Departure

Time 2026-04-22 18:20
Airport San Fernando Airport (SADF)

Arrival

Time 2026-04-22 19:07
Airport Ástor Piazzola International Airport (SAZM)
Time Latitude Longitude Altitude Speed Heading
2026-04-22 18:02 -34.45561 -58.58399 24 ft 0 kts 211°
2026-04-22 18:16 -34.45561 -58.58400 24 ft 0 kts 222°
2026-04-22 18:16 -34.45558 -58.58408 24 ft 1 kts 301°
2026-04-22 18:16 -34.45542 -58.58413 24 ft 6 kts 354°
2026-04-22 18:17 -34.45490 -58.58355 25 ft 15 kts 69°
2026-04-22 18:17 -34.45442 -58.58243 25 ft 14 kts 63°
2026-04-22 18:17 -34.45398 -58.58137 24 ft 14 kts 63°
2026-04-22 18:17 -34.45356 -58.58038 25 ft 13 kts 63°
2026-04-22 18:18 -34.45299 -58.57993 24 ft 13 kts 335°
2026-04-22 18:18 -34.45215 -58.58053 24 ft 14 kts 328°
2026-04-22 18:18 -34.45137 -58.58110 24 ft 13 kts 329°
2026-04-22 18:18 -34.45062 -58.58165 25 ft 12 kts 330°
2026-04-22 18:19 -34.44991 -58.58214 24 ft 11 kts 330°
2026-04-22 18:19 -34.44925 -58.58260 26 ft 11 kts 330°
2026-04-22 18:19 -34.44907 -58.58274 24 ft 0 kts 324°
2026-04-22 18:19 -34.44905 -58.58276 26 ft 3 kts 324°
2026-04-22 18:20 -34.44856 -58.58324 22 ft 11 kts 305°
2026-04-22 18:20 -34.44854 -58.58380 27 ft 14 kts 221°
2026-04-22 18:20 -34.45199 -58.58782 26 ft 122 kts 224°
2026-04-22 18:20 -34.45860 -58.59540 633 ft 127 kts 224°
2026-04-22 18:21 -34.46535 -58.60332 1259 ft 145 kts 225°
2026-04-22 18:21 -34.47324 -58.61244 1751 ft 175 kts 224°
2026-04-22 18:21 -34.48407 -58.61898 2646 ft 176 kts 181°
2026-04-22 18:21 -34.49484 -58.61395 3822 ft 170 kts 161°
2026-04-22 18:22 -34.50696 -58.61257 4464 ft 185 kts 187°
2026-04-22 18:22 -34.52107 -58.61418 4876 ft 221 kts 185°
2026-04-22 18:22 -34.53738 -58.61345 5428 ft 249 kts 178°
2026-04-22 18:22 -34.55493 -58.61074 6319 ft 255 kts 176°
2026-04-22 18:23 -34.57241 -58.60823 7345 ft 257 kts 178°
2026-04-22 18:23 -34.59041 -58.60625 8357 ft 262 kts 180°
2026-04-22 18:23 -34.60883 -58.60418 9415 ft 268 kts 180°
2026-04-22 18:24 -34.64763 -58.59945 10673 ft 301 kts 180°
2026-04-22 18:24 -34.66892 -58.59690 11292 ft 311 kts 180°
2026-04-22 18:24 -34.71278 -58.59157 12686 ft 328 kts 180°
2026-04-22 18:25 -34.73590 -58.58879 13385 ft 337 kts 181°
2026-04-22 18:25 -34.75961 -58.58594 14037 ft 346 kts 181°
2026-04-22 18:25 -34.78373 -58.58301 14746 ft 350 kts 181°
2026-04-22 18:26 -34.83297 -58.57705 16174 ft 360 kts 181°
2026-04-22 18:26 -34.85814 -58.57400 16914 ft 365 kts 182°
2026-04-22 18:26 -34.88365 -58.57092 17664 ft 370 kts 182°
2026-04-22 18:26 -34.90949 -58.56779 18409 ft 376 kts 182°
2026-04-22 18:27 -34.93541 -58.56465 19079 ft 381 kts 182°
2026-04-22 18:27 -34.96193 -58.56141 19813 ft 385 kts 182°
2026-04-22 18:27 -34.98874 -58.55816 20557 ft 389 kts 182°
2026-04-22 18:27 -35.01589 -58.55488 21263 ft 394 kts 182°
2026-04-22 18:28 -35.04327 -58.55155 21993 ft 398 kts 182°
2026-04-22 18:28 -35.07099 -58.54816 22744 ft 400 kts 182°
2026-04-22 18:28 -35.09910 -58.54477 23102 ft 415 kts 182°
2026-04-22 18:28 -35.12866 -58.54132 23101 ft 438 kts 182°
2026-04-22 18:29 -35.15973 -58.53753 23101 ft 458 kts 181°
2026-04-22 18:29 -35.19211 -58.53345 23128 ft 477 kts 181°
2026-04-22 18:29 -35.22574 -58.52931 23102 ft 493 kts 181°
2026-04-22 18:29 -35.26034 -58.52514 23103 ft 505 kts 181°
2026-04-22 18:30 -35.29555 -58.52081 23104 ft 511 kts 181°
2026-04-22 18:30 -35.36621 -58.51207 23097 ft 514 kts 181°
2026-04-22 18:30 -35.40181 -58.50775 23121 ft 515 kts 181°
2026-04-22 18:31 -35.43748 -58.50337 23099 ft 515 kts 181°
2026-04-22 18:31 -35.47312 -58.49897 23092 ft 515 kts 181°
2026-04-22 18:31 -35.50880 -58.49458 23092 ft 515 kts 181°
2026-04-22 18:31 -35.54447 -58.49020 23090 ft 515 kts 181°
2026-04-22 18:32 -35.56860 -58.48723 23086 ft 515 kts 181°
2026-04-22 18:32 -35.60425 -58.48284 23087 ft 515 kts 181°
2026-04-22 18:32 -35.63978 -58.47846 23087 ft 514 kts 180°
2026-04-22 18:32 -35.67550 -58.47403 23076 ft 513 kts 181°
2026-04-22 18:33 -35.71066 -58.46969 23074 ft 514 kts 181°
2026-04-22 18:33 -35.74630 -58.46474 23062 ft 517 kts 178°
2026-04-22 18:33 -35.78159 -58.45477 23072 ft 523 kts 171°
2026-04-22 18:33 -35.81675 -58.44302 23089 ft 523 kts 171°
2026-04-22 18:34 -35.85200 -58.43163 23081 ft 522 kts 171°
2026-04-22 18:34 -35.88719 -58.42035 23083 ft 522 kts 171°
2026-04-22 18:34 -35.92237 -58.40881 23084 ft 523 kts 171°
2026-04-22 18:34 -35.95708 -58.39729 23080 ft 523 kts 171°
2026-04-22 18:35 -35.99222 -58.38577 23082 ft 522 kts 171°
2026-04-22 18:35 -36.02742 -58.37433 23076 ft 522 kts 171°
2026-04-22 18:35 -36.06255 -58.36283 23074 ft 522 kts 171°
2026-04-22 18:35 -36.09768 -58.35121 23075 ft 522 kts 170°
2026-04-22 18:36 -36.13278 -58.33964 23075 ft 522 kts 171°
2026-04-22 18:36 -36.16796 -58.32809 23070 ft 522 kts 171°
2026-04-22 18:36 -36.20307 -58.31654 23087 ft 522 kts 170°
2026-04-22 18:36 -36.23828 -58.30493 23067 ft 522 kts 170°
2026-04-22 18:37 -36.27341 -58.29331 23071 ft 522 kts 170°
2026-04-22 18:37 -36.30858 -58.28167 23072 ft 522 kts 170°
2026-04-22 18:37 -36.34357 -58.27012 23068 ft 522 kts 170°
2026-04-22 18:37 -36.37889 -58.25845 23068 ft 523 kts 170°
2026-04-22 18:38 -36.41357 -58.24695 23061 ft 524 kts 170°
2026-04-22 18:38 -36.44849 -58.23532 22796 ft 505 kts 170°
2026-04-22 18:38 -36.48130 -58.22427 22151 ft 473 kts 170°
2026-04-22 18:39 -36.54223 -58.20419 20963 ft 442 kts 171°
2026-04-22 18:39 -36.57190 -58.19441 20376 ft 439 kts 171°
2026-04-22 18:39 -36.60135 -58.18452 19802 ft 436 kts 171°
2026-04-22 18:39 -36.63052 -58.17473 19228 ft 432 kts 171°
2026-04-22 18:40 -36.65942 -58.16512 18660 ft 429 kts 172°
2026-04-22 18:40 -36.68821 -58.15556 18061 ft 425 kts 172°
2026-04-22 18:40 -36.71658 -58.14605 17490 ft 419 kts 172°
2026-04-22 18:40 -36.74460 -58.13665 16939 ft 414 kts 172°
2026-04-22 18:41 -36.77223 -58.12742 16405 ft 409 kts 172°
2026-04-22 18:41 -36.79952 -58.11830 15856 ft 402 kts 172°
2026-04-22 18:41 -36.82635 -58.10929 15325 ft 397 kts 172°
2026-04-22 18:41 -36.85265 -58.10044 14792 ft 380 kts 173°
2026-04-22 18:42 -36.87720 -58.09212 14305 ft 360 kts 173°
2026-04-22 18:42 -36.90082 -58.08418 13845 ft 343 kts 174°
2026-04-22 18:42 -36.92333 -58.07666 13377 ft 328 kts 174°
2026-04-22 18:42 -36.94495 -58.06944 12944 ft 314 kts 174°
2026-04-22 18:43 -36.96561 -58.06248 12555 ft 301 kts 174°
2026-04-22 18:43 -36.98551 -58.05579 12150 ft 290 kts 174°
2026-04-22 18:43 -37.00473 -58.04931 11761 ft 281 kts 174°
2026-04-22 18:43 -37.02331 -58.04305 11396 ft 273 kts 174°
2026-04-22 18:44 -37.04136 -58.03700 11070 ft 264 kts 174°
2026-04-22 18:44 -37.05878 -58.03111 10951 ft 256 kts 175°
2026-04-22 18:44 -37.07601 -58.02539 10541 ft 263 kts 175°
2026-04-22 18:44 -37.09388 -58.01940 10043 ft 264 kts 174°
2026-04-22 18:45 -37.11140 -58.01337 9651 ft 257 kts 174°
2026-04-22 18:45 -37.12847 -58.00756 9302 ft 252 kts 174°
2026-04-22 18:45 -37.14532 -58.00193 8970 ft 249 kts 174°
2026-04-22 18:45 -37.16205 -57.99628 8638 ft 249 kts 174°
2026-04-22 18:46 -37.17876 -57.99062 8313 ft 248 kts 174°
2026-04-22 18:46 -37.19536 -57.98501 7984 ft 246 kts 174°
2026-04-22 18:46 -37.21177 -57.97945 7659 ft 244 kts 173°
2026-04-22 18:46 -37.22818 -57.97389 7333 ft 242 kts 173°
2026-04-22 18:47 -37.24417 -57.96845 7015 ft 240 kts 173°
2026-04-22 18:47 -37.26025 -57.96297 6696 ft 238 kts 173°
2026-04-22 18:47 -37.27624 -57.95759 6379 ft 237 kts 173°
2026-04-22 18:47 -37.29212 -57.95222 6057 ft 235 kts 172°
2026-04-22 18:48 -37.30784 -57.94686 5743 ft 232 kts 172°
2026-04-22 18:48 -37.32342 -57.94158 5421 ft 231 kts 172°
2026-04-22 18:48 -37.33885 -57.93633 5139 ft 229 kts 172°
2026-04-22 18:48 -37.35426 -57.93110 4835 ft 229 kts 172°
2026-04-22 18:49 -37.36960 -57.92589 4520 ft 227 kts 171°
2026-04-22 18:49 -37.38455 -57.92078 4215 ft 225 kts 171°
2026-04-22 18:49 -37.39968 -57.91561 3919 ft 224 kts 171°
2026-04-22 18:49 -37.41462 -57.91052 3623 ft 221 kts 171°
2026-04-22 18:50 -37.42947 -57.90549 3332 ft 220 kts 170°
2026-04-22 18:50 -37.44420 -57.90048 3032 ft 220 kts 170°
2026-04-22 18:50 -37.45905 -57.89544 2739 ft 222 kts 169°
2026-04-22 18:50 -37.47404 -57.89030 2445 ft 224 kts 169°
2026-04-22 18:51 -37.48881 -57.88410 2116 ft 225 kts 159°
2026-04-22 18:51 -37.50195 -57.87400 1801 ft 222 kts 150°
2026-04-22 18:51 -37.51396 -57.86113 1418 ft 245 kts 130°
2026-04-22 18:51 -37.52395 -57.84441 1340 ft 227 kts 130°
2026-04-22 18:52 -37.53096 -57.82672 1469 ft 236 kts 111°
2026-04-22 18:52 -37.53547 -57.80595 1959 ft 254 kts 108°
2026-04-22 18:52 -37.54021 -57.78494 2814 ft 234 kts 109°
2026-04-22 18:52 -37.54444 -57.76635 2981 ft 212 kts 110°
2026-04-22 18:53 -37.54831 -57.74833 2997 ft 226 kts 109°
2026-04-22 18:53 -37.55280 -57.72806 3002 ft 244 kts 109°
2026-04-22 18:53 -37.55710 -57.70817 2992 ft 224 kts 109°
2026-04-22 18:53 -37.56095 -57.68994 2988 ft 208 kts 109°
2026-04-22 18:54 -37.56457 -57.67267 2993 ft 218 kts 109°
2026-04-22 18:54 -37.56887 -57.65281 3022 ft 239 kts 109°
2026-04-22 18:54 -37.57328 -57.63254 3012 ft 240 kts 109°
2026-04-22 18:54 -37.57773 -57.61223 3010 ft 241 kts 109°
2026-04-22 18:55 -37.58224 -57.59177 3002 ft 243 kts 109°
2026-04-22 18:55 -37.58677 -57.57120 3003 ft 244 kts 109°
2026-04-22 18:55 -37.59130 -57.55054 2999 ft 244 kts 109°
2026-04-22 18:55 -37.59588 -57.52991 2998 ft 244 kts 109°
2026-04-22 18:56 -37.60081 -57.50821 3009 ft 269 kts 110°
2026-04-22 18:56 -37.61004 -57.48875 2969 ft 262 kts 138°
2026-04-22 18:56 -37.62257 -57.47178 2989 ft 270 kts 131°
2026-04-22 18:56 -37.63250 -57.45166 3011 ft 271 kts 124°
2026-04-22 18:57 -37.64193 -57.43100 3011 ft 272 kts 124°
2026-04-22 18:57 -37.65144 -57.41036 3011 ft 272 kts 124°
2026-04-22 18:57 -37.66095 -57.38972 3012 ft 272 kts 124°
2026-04-22 18:57 -37.67203 -57.37058 2937 ft 267 kts 144°
2026-04-22 18:58 -37.68818 -57.36062 3001 ft 258 kts 164°
2026-04-22 18:58 -37.70496 -57.35223 3014 ft 259 kts 162°
2026-04-22 18:58 -37.72166 -57.34346 3008 ft 259 kts 162°
2026-04-22 18:58 -37.73823 -57.33468 3006 ft 259 kts 162°
2026-04-22 18:59 -37.75486 -57.32590 3009 ft 258 kts 162°
2026-04-22 18:59 -37.77130 -57.31716 3006 ft 259 kts 162°
2026-04-22 18:59 -37.78790 -57.30811 3004 ft 260 kts 162°
2026-04-22 18:59 -37.80447 -57.29901 3009 ft 259 kts 162°
2026-04-22 19:00 -37.82099 -57.28996 3006 ft 259 kts 162°
2026-04-22 19:00 -37.83769 -57.28085 3000 ft 259 kts 162°
2026-04-22 19:00 -37.85420 -57.27251 2963 ft 256 kts 171°
2026-04-22 19:00 -37.87109 -57.27431 2936 ft 241 kts 205°
2026-04-22 19:01 -37.88571 -57.28452 3014 ft 240 kts 214°
2026-04-22 19:01 -37.89987 -57.29575 3009 ft 240 kts 215°
2026-04-22 19:01 -37.91389 -57.30693 2949 ft 241 kts 215°
2026-04-22 19:01 -37.92797 -57.31834 2803 ft 242 kts 215°
2026-04-22 19:02 -37.94209 -57.32990 2670 ft 241 kts 215°
2026-04-22 19:02 -37.95621 -57.34142 2511 ft 240 kts 215°
2026-04-22 19:02 -37.96920 -57.35411 2301 ft 234 kts 231°
2026-04-22 19:02 -37.97545 -57.37207 2292 ft 204 kts 252°
2026-04-22 19:03 -37.97873 -57.38791 2267 ft 182 kts 254°
2026-04-22 19:03 -37.98218 -57.40373 2281 ft 187 kts 253°
2026-04-22 19:03 -37.98573 -57.41962 2284 ft 188 kts 253°
2026-04-22 19:03 -37.98916 -57.43580 2135 ft 189 kts 255°
2026-04-22 19:04 -37.98886 -57.45301 1860 ft 197 kts 275°
2026-04-22 19:04 -37.98641 -57.47019 1635 ft 202 kts 279°
2026-04-22 19:04 -37.98052 -57.48528 1346 ft 180 kts 303°
2026-04-22 19:04 -37.97220 -57.49646 1097 ft 174 kts 307°
2026-04-22 19:05 -37.96485 -57.50797 950 ft 154 kts 297°
2026-04-22 19:05 -37.95996 -57.51874 859 ft 130 kts 290°
2026-04-22 19:05 -37.95652 -57.52904 637 ft 128 kts 289°
2026-04-22 19:05 -37.95175 -57.53874 459 ft 130 kts 302°
2026-04-22 19:06 -37.94684 -57.54835 352 ft 129 kts 297°
2026-04-22 19:06 -37.94199 -57.55792 189 ft 129 kts 295°
2026-04-22 19:06 -37.93719 -57.56738 55 ft 120 kts 294°
2026-04-22 19:07 -37.93072 -57.58002 42 ft 15 kts 306°
2026-04-22 19:07 -37.93088 -57.58014 42 ft 9 kts 118°
2026-04-22 19:07 -37.93151 -57.57974 43 ft 11 kts 205°
2026-04-22 19:07 -37.93200 -57.58018 44 ft 8 kts 217°
2026-04-22 19:08 -37.93243 -57.58043 44 ft 6 kts 183°
2026-04-22 19:08 -37.93282 -57.58028 44 ft 6 kts 156°
2026-04-22 19:08 -37.93316 -57.58017 44 ft 4 kts 173°
2026-04-22 19:08 -37.93342 -57.58015 44 ft 4 kts 180°
2026-04-22 19:09 -37.93365 -57.58019 44 ft 3 kts 188°
2026-04-22 19:09 -37.93385 -57.58027 44 ft 7 kts 205°
2026-04-22 19:09 -37.93434 -57.58069 45 ft 14 kts 238°
2026-04-22 19:09 -37.93470 -57.58121 45 ft 2 kts 117°
2026-04-22 19:10 -37.93468 -57.58118 44 ft 0 kts 75°
2026-04-22 19:10 -37.93465 -57.58115 45 ft 0 kts 39°